Regional Weather Roundup
Issued by NWS

Home | Current Version | Previous Version | Text Only | Print | Product List | Glossary On
Versions: 1 2 3 4 5 6 7 8 9 10 11 12 13 14 15 16 17 18 19 20 21 22 23 24 25 26 27 28 29 30 31 32 33 34 35 36 37 38 39 40 41 42 43 44 45 46 47 48 49 50
000
ASUS43 KTOP 241108
RWRKS

WEATHER ROUNDUP FOR KANSAS
NATIONAL WEATHER SERVICE GOODLAND KS
600 AM CDT MON JUL 24 2017

NOTE:  "FAIR" INDICATES FEW OR NO CLOUDS BELOW 12,000 FEET WITH NO
SIGNIFICANT WEATHER AND/OR OBSTRUCTIONS TO VISIBILITY.

KSZ001>006-013>018-027>032-041>047-241200-
NORTHWEST KANSAS

CITY           SKY/WX    TMP DP  RH WIND       PRES   REMARKS
GOODLAND       CLEAR     69  61  75 S13       30.06F
HAYS             N/A     64  60  87 CALM      30.01R
HILL CITY      CLEAR     64  64 100 CALM      30.02R FOG
RUSSELL        CLEAR     68  64  87 E3        29.99R
$$

KSZ061>065-074>080-084>089-241200-
SOUTHWEST KANSAS

CITY           SKY/WX    TMP DP  RH WIND       PRES   REMARKS
DODGE CITY     CLEAR     68  63  84 SW6       30.04R
ELKHART          N/A     67  54  63 S5          N/A
GARDEN CITY    CLEAR     69  62  78 CALM      30.05R
LIBERAL        CLEAR     70  64  81 CALM      30.05R
PRATT          CLEAR     66  62  87 SW5       30.01R
$$

KSZ066>073-081>083-090>101-241200-
SOUTHEAST KANSAS

CITY           SKY/WX    TMP DP  RH WIND       PRES   REMARKS
CHANUTE        CLEAR     70  69  97 CALM      29.95S
COFFEYVILLE    FOG       71  70  96 CALM      29.94S VSB 1/2
HUTCHINSON     CLEAR     67  65  93 CALM      29.97S
MEDICINE LODGE   N/A     70  66  87 CALM      29.99R
NEWTON         CLEAR     71  69  93 SE5       29.99R
PARSONS        PTCLDY    67  67 100 CALM      29.96R FOG
WICHITA INTL   CLEAR     71  69  93 SW3       29.97R
WICHITA JABRA  CLEAR     69  69 100 NE3       29.98R
WICHITA MCCONL CLEAR     75  67  75 CALM      29.97R
WINFIELD       CLEAR     69  66  90 S3        29.98R
$$

KSZ007>012-019>026-033>040-048>060-102>105-241200-
NORTHEAST KANSAS

CITY           SKY/WX    TMP DP  RH WIND       PRES   REMARKS
CONCORDIA      CLEAR     67  66  97 E5        30.00R
EMPORIA        CLEAR     72  71  97 NE3       29.97R
LAWRENCE       MOCLDY    71  67  87 CALM      29.98R
MANHATTAN      CLEAR     72  66  81 NE6       29.98R
MARYSVILLE     PTCLDY    64  63  94 CALM      30.01R
OLATHE IND     CLOUDY    73  65  75 NE6       29.98R
OLATHE EXE     PTCLDY    71  65  81 NE7       29.98R
SALINA         CLEAR     73  69  87 S3        29.97F
TOPEKA BILLARD CLOUDY    74  69  85 CALM      29.98R
TOPEKA FORBES  PTCLDY    73  69  87 NE3       29.99R
$$




USA.gov is the U.S. government's official web portal to all federal, state and local government web resources and services.